Home   Weather   Halle   Past weeks

Flag for Germany Past Weather in Halle, Saxony-Anhalt, Germany — Yesterday and Last 2 Weeks

Now
55 °F

Fog.


Feels Like: 55 °F
Forecast: 55 / 70 °F
Wind: 3 mph from West

Location: Leipzig-Schkeuditz

Current Time: Sep 27, 2016 at 9:14:26 AM

Latest Report: Sep 27, 2016 at 8:20 AM


Visibility: 3 mi

Pressure: 30.27 "Hg

Humidity: 94%

Dew Point: 54 °F

Location of HalleLocation

Past Weather in Halle — Graph

°F

Halle Temperature Yesterday

Maximum temperature yesterday: 68 °F (at 2:20 PM)
Minimum temperature yesterday: 50 °F (at 3:50 AM)
Average temperature yesterday: 59 °F

High & Low Weather Summary for the Past Weeks

 TemperatureHumidityPressure
High90 °F (Sep 12, 2:50 PM)100% (Sep 16, 11:50 PM)30.33 "Hg (Sep 16, 11:50 PM)
Low48 °F (Sep 22, 6:50 AM)27% (Sep 12, 4:20 PM)29.86 "Hg (Sep 17, 3:50 AM)
Average63 °F71%30.07 "Hg
* Reported Sep 12 7:20 AM — Sep 27 7:50 AM, Halle, Weather by CustomWeather, © 2016

Note: Actual official high and low records may vary slightly from our data, if they occured in-between our weather recording intervals... More about our weather records

Advertising

Halle Weather History for the Previous 24 Hours

Scroll right to see more
 ConditionsComfort  
Time TempWeatherWind HumidityBarometerVisibility
7:50 AM
Tue, Sep 27
52 °FFog.2 mph100%30.24 "Hg1 mi
7:20 AM52 °FFog.5 mph100%30.24 "Hg2 mi
6:50 AM52 °FFog.6 mph94%30.24 "Hg2 mi
6:20 AM50 °FFog.5 mph100%30.24 "Hg3 mi
5:50 AM52 °FClear.6 mph100%30.21 "Hg5 mi
5:20 AM52 °FClear.6 mph100%30.21 "Hg10 mi
4:50 AM52 °FFog.5 mph94%30.21 "HgN/A
4:20 AM54 °FFog.5 mph94%30.21 "HgN/A
3:50 AM54 °FClear.5 mph94%30.21 "Hg10 mi
3:20 AM54 °FClear.7 mph94%30.21 "Hg10 mi
2:50 AM54 °FClear.2 mph94%30.21 "Hg10 mi
2:20 AM55 °FClear.6 mph94%30.21 "Hg10 mi
1:50 AM55 °FClear.8 mph100%30.21 "Hg10 mi
1:20 AM55 °FClear.5 mph100%30.21 "Hg10 mi
12:50 AM57 °FClear.6 mph94%30.21 "Hg10 mi
12:20 AM55 °FClear.5 mph94%30.21 "Hg10 mi
11:50 PM
Mon, Sep 26
57 °FClear.6 mph94%30.21 "Hg10 mi
11:20 PM59 °FClear.6 mph88%30.21 "Hg10 mi
10:50 PM59 °FClear.6 mph88%30.21 "Hg10 mi
10:20 PM61 °FClear.5 mph83%30.21 "Hg10 mi
9:50 PM61 °FClear.5 mph83%30.21 "Hg10 mi
9:20 PM61 °FClear.3 mph83%30.21 "Hg10 mi
8:50 PM61 °FClear.5 mph83%30.21 "Hg10 mi
8:20 PM63 °FPassing clouds.5 mph77%30.18 "HgN/A
7:50 PM63 °FPassing clouds.6 mph77%30.18 "HgN/A
7:20 PM63 °FPartly cloudy.7 mph77%30.18 "HgN/A
6:50 PM64 °FSunny.7 mph73%30.18 "Hg10 mi
6:20 PM66 °FBroken clouds.8 mph68%30.18 "HgN/A
5:50 PM66 °FBroken clouds.8 mph68%30.18 "HgN/A
5:20 PM66 °FBroken clouds.10 mph68%30.18 "HgN/A
4:50 PM68 °FScattered clouds.8 mph64%30.18 "HgN/A
4:20 PM68 °FScattered clouds.7 mph64%30.18 "HgN/A
3:50 PM68 °FScattered clouds.6 mph64%30.18 "HgN/A
3:20 PM68 °FPartly sunny.7 mph64%30.18 "HgN/A
2:50 PM68 °FPartly sunny.6 mph64%30.18 "HgN/A
2:20 PM68 °FScattered clouds.7 mph64%30.18 "HgN/A
1:50 PM66 °FScattered clouds.9 mph68%30.18 "HgN/A
1:20 PM66 °FBroken clouds.7 mph68%30.18 "HgN/A
12:50 PM66 °FBroken clouds.8 mph68%30.18 "HgN/A
12:20 PM66 °FScattered clouds.8 mph73%30.18 "HgN/A
11:50 AM66 °FScattered clouds.8 mph73%30.18 "HgN/A
11:20 AM64 °FBroken clouds.7 mph78%30.18 "HgN/A
10:50 AM63 °FBroken clouds.9 mph83%30.18 "HgN/A
10:20 AM61 °FBroken clouds.7 mph88%30.18 "Hg6 mi
9:50 AM57 °FBroken clouds.5 mph94%30.18 "HgN/A
9:20 AM55 °FBroken clouds.6 mph94%30.18 "HgN/A
Weather by CustomWeather, © 2016

See weather overviewHow to use our weather pages